This is the latest recevied weather packets stored in our database for station/object DG3EAJ-12. If no packets are shown the sender has not sent any weather packets the latest 10 day(s).
| Time | Temp. | Humidity | Pressure | Rain* | Wind** | Luminosity | Snow |
|---|---|---|---|---|---|---|---|
| 1777523406 | 17.78° C | 45% | 1029.9 hPa | - | - | - | - |
| 1777521605 | 17.78° C | 45% | 1029.8 hPa | - | - | - | - |
| 1777519804 | 17.78° C | 44% | 1029.8 hPa | - | - | - | - |
| 1777518004 | 17.78° C | 45% | 1029.6 hPa | - | - | - | - |
| 1777516204 | 18.33° C | 44% | 1029.6 hPa | - | - | - | - |
| 1777514404 | 17.78° C | 44% | 1029.5 hPa | - | - | - | - |
| 1777510804 | 17.78° C | 44% | 1029.4 hPa | - | - | - | - |
| 1777509003 | 17.78° C | 43% | 1029.4 hPa | - | - | - | - |
| 1777507203 | 17.78° C | 44% | 1029.3 hPa | - | - | - | - |
| 1777505403 | 17.78° C | 43% | 1029.2 hPa | - | - | - | - |
| 1777501805 | 17.78° C | 42% | 1028.8 hPa | - | - | - | - |
| 1777500005 | 17.78° C | 42% | 1028.6 hPa | - | - | - | - |
| 1777498205 | 18.33° C | 42% | 1028.3 hPa | - | - | - | - |
| 1777496404 | 18.33° C | 42% | 1027.9 hPa | - | - | - | - |
| 1777492804 | 18.33° C | 41% | 1027.5 hPa | - | - | - | - |
| 1777491003 | 18.33° C | 41% | 1027.3 hPa | - | - | - | - |
| 1777489203 | 18.33° C | 41% | 1026.7 hPa | - | - | - | - |
| 1777487403 | 18.89° C | 39% | 1026.3 hPa | - | - | - | - |
| 1777485603 | 18.89° C | 41% | 1025.9 hPa | - | - | - | - |
| 1777483803 | 18.89° C | 42% | 1025.7 hPa | - | - | - | - |
| 1777480204 | 19.44° C | 44% | 1025.7 hPa | - | - | - | - |
| 1777478403 | 19.44° C | 43% | 1025.8 hPa | - | - | - | - |
| 1777476603 | 18.89° C | 44% | 1025.9 hPa | - | - | - | - |
| 1777474803 | 18.89° C | 43% | 1025.9 hPa | - | - | - | - |
| 1777473003 | 18.33° C | 44% | 1026.1 hPa | - | - | - | - |
* Rain since midnight (hover to see other rain measurements)
** Current wind speed in m/s (hover to see current wind gust speed)